User: anonymous   Login
Location: Newark
(40.3500°N, 15.2333°E)
Time: 20:56:57
(UTC+00:00)
Language:

PicSat - Orbit

View from above orbital plane
View from above orbital plane
View from above satellite
View from above satellite

Ground track
Ground track

The orbit data is extracted from the following two-line orbital elements,

1 43131U 18004W   20052.26793822  .00002430  00000-0  10057-3 0  9998
2 43131  97.4614 124.7765 0010900 102.6144 257.6313 15.24873189117234
Epoch (UTC): 21 February 2020 06:25:49
Eccentricity: 0.0010900
inclination: 97.4614°
perigee height: 483 km
apogee height: 498 km
right ascension of ascending node: 124.7765°
argument of perigee: 102.6144°
revolutions per day: 15.24873189
mean anomaly at epoch: 257.6313°
orbit number at epoch: 11723

The dashed part of the orbit path shows where the satellite is in the earth's shadow,  

DLR